FW1892 Weather Reports


Display with metric or nautical units.
time (UTC)temp
F
wind
direction
speed
MPH
gust
MPH
rain 1hr
in
rain 24hr
in
rain mn
in
humidity
%
barometer
mb
20260904204036 82 175 2.0 6.0 0.00 0.00 0.00 48 1007.3
20260904203703 81 302 1.0 9.0 0.00 0.00 0.00 53 1006.5
20260904203532 82 19 2.0 4.0 0.00 0.00 0.00 47 1007.4
20260904203028 82 291 3.0 4.0 0.00 0.00 0.00 47 1007.4
20260904202703 81 318 1.0 5.0 0.00 0.00 0.00 56 1006.4
20260904202524 81 193 1.0 4.0 0.00 0.00 0.00 50 1007.2
20260904202203 81 11 2.0 12.0 0.00 0.00 0.00 54 1006.5
20260904202020 82 46 4.0 10.0 0.00 0.00 0.00 49 1007.5
20260904201703 81 9 1.0 14.0 0.00 0.00 0.00 55 1006.6
20260904201515 81 248 3.0 7.0 0.00 0.00 0.00 49 1007.4
20260904201203 81 326 0.0 10.0 0.00 0.00 0.00 55 1006.5
20260904201010 81 348 2.0 8.0 0.00 0.00 0.00 50 1007.5
20260904200703 82 307 0.0 12.0 0.00 0.00 0.00 54 1006.5
20260904200509 82 252 3.0 6.0 0.00 0.00 0.00 50 1007.1
20260904200203 81 291 0.0 7.0 0.00 0.00 0.00 56 1006.5
20260904200004 82 259 4.0 7.0 0.00 0.00 0.00 51 1007.4
20260904195703 81 305 0.0 2.0 0.00 0.00 0.00 57 1006.5
20260904195502 82 141 2.0 4.0 0.00 0.00 0.00 50 1007.4
20260904195204 81 303 0.0 2.0 0.00 0.00 0.00 56 1006.6
20260904195001 81 258 4.0 6.0 0.00 0.00 0.00 51 1007.2
20260904194703 81 309 0.0 6.0 0.00 0.00 0.00 55 1006.6
20260904194457 81 259 2.0 7.0 0.00 0.00 0.00 51 1007.5
20260904194203 81 292 2.0 12.0 0.00 0.00 0.00 54 1006.7
20260904193951 81 260 4.0 8.0 0.00 0.00 0.00 50 1007.5
20260904193446 81 262 4.0 6.0 0.00 0.00 0.00 49 1007.5
20260904193203 81 285 0.0 3.0 0.00 0.00 0.00 55 1006.7
20260904192943 82 306 3.0 7.0 0.00 0.00 0.00 51 1007.3
20260904192442 82 16 5.0 6.0 0.00 0.00 0.00 49 1007.6
20260904192204 81 302 2.0 9.0 0.00 0.00 0.00 55 1006.7
20260904191939 82 41 1.0 4.0 0.00 0.00 0.00 51 1007.7
20260904191703 81 297 0.0 2.0 0.00 0.00 0.00 57 1006.7
20260904191435 81 302 3.0 9.0 0.00 0.00 0.00 51 1007.7
20260904191203 81 316 0.0 2.0 0.00 0.00 0.00 57 1006.7
20260904190932 80 46 1.0 4.0 0.00 0.00 0.00 53 1007.7
20260904190703 81 304 0.0 5.0 0.00 0.00 0.00 56 1006.7
20260904190432 80 202 4.0 4.0 0.00 0.00 0.00 53 1007.6
20260904190204 81 307 0.0 9.0 0.00 0.00 0.00 55 1006.7
20260904185929 80 308 1.0 11.0 0.00 0.00 0.00 53 1007.6
20260904185703 81 352 3.0 12.0 0.00 0.00 0.00 55 1006.7
20260904185425 82 37 2.0 8.0 0.00 0.00 0.00 51 1007.8
20260904185204 82 31 0.0 1.0 0.00 0.00 0.00 55 1006.8
20260904184924 82 246 3.0 8.0 0.00 0.00 0.00 49 1007.5
20260904184704 82 324 1.0 15.0 0.00 0.00 0.00 53 1006.6
20260904184419 82 289 7.0 13.0 0.00 0.00 0.00 48 1007.7
20260904183914 82 217 4.0 6.0 0.00 0.00 0.00 46 1007.6
20260904183409 82 35 5.0 8.0 0.00 0.00 0.00 45 1007.8
20260904183203 83 313 6.0 14.0 0.00 0.00 0.00 49 1006.9
20260904182905 83 31 0.0 4.0 0.00 0.00 0.00 46 1007.7
20260904182704 83 24 0.0 14.0 0.00 0.00 0.00 50 1006.7
20260904182400 83 308 5.0 7.0 0.00 0.00 0.00 46 1007.8
20260904182204 83 345 2.0 10.0 0.00 0.00 0.00 50 1006.9
20260904181855 83 336 4.0 8.0 0.00 0.00 0.00 46 1007.8
20260904181704 83 305 7.0 13.0 0.00 0.00 0.00 50 1006.7
20260904181350 83 274 3.0 4.0 0.00 0.00 0.00 47 1007.6
20260904180845 83 196 3.0 4.0 0.00 0.00 0.00 46 1007.6
20260904180704 82 279 0.0 1.0 0.00 0.00 0.00 53 1006.6
20260904180340 82 150 4.0 4.0 0.00 0.00 0.00 46 1007.6
20260904180203 82 277 0.0 1.0 0.00 0.00 0.00 52 1006.7
20260904175839 82 287 2.0 7.0 0.00 0.00 0.00 47 1007.6
20260904175703 82 338 0.0 3.0 0.00 0.00 0.00 52 1006.7
20260904175339 82 317 7.0 9.0 0.00 0.00 0.00 47 1007.4
20260904175203 82 332 2.0 12.0 0.00 0.00 0.00 54 1006.8
20260904174838 82 28 4.0 6.0 0.00 0.00 0.00 48 1007.5
20260904174703 82 309 0.0 0.0 0.00 0.00 0.00 55 1006.8
20260904174334 81 209 1.0 9.0 0.00 0.00 0.00 51 1007.7
20260904174204 81 292 0.0 9.0 0.00 0.00 0.00 55 1006.9
20260904173830 81 271 2.0 6.0 0.00 0.00 0.00 51 1007.8
20260904173704 81 346 0.0 8.0 0.00 0.00 0.00 56 1007.0
20260904173325 81 277 6.0 10.0 0.00 0.00 0.00 52 1007.8
20260904173203 81 306 2.0 12.0 0.00 0.00 0.00 57 1006.9
20260904172821 81 300 7.0 9.0 0.00 0.00 0.00 51 1007.8
20260904172703 80 305 2.0 8.0 0.00 0.00 0.00 57 1007.0
20260904172320 80 295 3.0 6.0 0.00 0.00 0.00 52 1008.0
20260904172204 80 292 0.0 12.0 0.00 0.00 0.00 57 1007.0
20260904171815 80 110 6.0 9.0 0.00 0.00 0.00 52 1008.0
20260904171704 80 325 3.0 12.0 0.00 0.00 0.00 58 1007.0
20260904171310 81 275 6.0 10.0 0.00 0.00 0.00 53 1007.8
20260904170807 80 65 3.0 4.0 0.00 0.00 0.00 54 1008.0
20260904170703 80 348 0.0 5.0 0.00 0.00 0.00 59 1007.0
20260904170302 80 355 4.0 6.0 0.00 0.00 0.00 55 1008.0
20260904170203 80 349 0.0 7.0 0.00 0.00 0.00 59 1007.1
20260904165803 79 210 2.0 3.0 0.00 0.00 0.00 57 1008.2
20260904165704 80 311 0.0 3.0 0.00 0.00 0.00 60 1007.2
20260904165305 80 326 2.0 6.0 0.00 0.00 0.00 56 1008.1
20260904165203 81 318 1.0 10.0 0.00 0.00 0.00 59 1007.2
20260904164755 82 227 5.0 8.0 0.00 0.00 0.00 54 1008.1
20260904164703 82 336 0.0 8.0 0.00 0.00 0.00 58 1007.2
20260904164251 82 340 2.0 4.0 0.00 0.00 0.00 54 1008.0
20260904164203 81 299 0.0 0.0 0.00 0.00 0.00 61 1007.0
20260904163747 81 243 1.0 9.0 0.00 0.00 0.00 55 1007.9
20260904163703 81 314 2.0 10.0 0.00 0.00 0.00 60 1007.2
20260904163242 80 293 5.0 7.0 0.00 0.00 0.00 56 1008.2
20260904163204 81 335 1.0 13.0 0.00 0.00 0.00 62 1007.2
20260904162741 80 351 5.0 10.0 0.00 0.00 0.00 56 1008.1
20260904162703 81 310 0.0 13.0 0.00 0.00 0.00 61 1007.2
20260904162236 81 251 5.0 6.0 0.00 0.00 0.00 56 1008.1
20260904162203 81 311 0.0 12.0 0.00 0.00 0.00 61 1007.2
20260904161732 81 14 2.0 6.0 0.00 0.00 0.00 56 1008.0
20260904161703 81 293 0.0 9.0 0.00 0.00 0.00 61 1007.2
20260904161232 80 245 3.0 8.0 0.00 0.00 0.00 55 1008.1
20260904161204 81 304 0.0 12.0 0.00 0.00 0.00 59 1007.3
20260904160728 81 59 4.0 6.0 0.00 0.00 0.00 57 1008.2
20260904160704 81 286 1.0 10.0 0.00 0.00 0.00 62 1007.3
20260904160223 82 257 2.0 4.0 0.00 0.00 0.00 55 1008.3
20260904155718 81 170 1.0 2.0 0.00 0.00 0.00 56 1008.5
20260904155703 81 272 0.0 1.0 0.00 0.00 0.00 64 1007.5
20260904155217 81 347 4.0 4.0 0.00 0.00 0.00 55 1008.6
20260904155204 80 324 1.0 6.0 0.00 0.00 0.00 63 1007.6
20260904154716 80 295 3.0 9.0 0.00 0.00 0.00 57 1008.7
20260904154704 80 283 2.0 14.0 0.00 0.00 0.00 64 1007.7
20260904154211 80 124 1.0 7.0 0.00 0.00 0.00 59 1008.4
20260904153706 79 312 4.0 6.0 0.00 0.00 0.00 60 1008.5
20260904153704 79 313 2.0 10.0 0.00 0.00 0.00 66 1007.7
20260904153204 79 320 0.0 13.0 0.00 0.00 0.00 67 1007.7
20260904153201 79 326 3.0 6.0 0.00 0.00 0.00 60 1008.6
20260904152703 78 295 1.0 12.0 0.00 0.00 0.00 68 1007.7
20260904152658 79 269 3.0 10.0 0.00 0.00 0.00 62 1008.6
20260904152203 78 305 0.0 5.0 0.00 0.00 0.00 69 1007.8
20260904152153 78 160 0.0 3.0 0.00 0.00 0.00 64 1008.5
20260904151704 78 306 0.0 12.0 0.00 0.00 0.00 70 1007.8
20260904151648 78 299 4.0 8.0 0.00 0.00 0.00 64 1008.6
20260904151203 78 309 1.0 9.0 0.00 0.00 0.00 70 1007.9
20260904151146 79 299 6.0 7.0 0.00 0.00 0.00 63 1008.7
20260904150703 78 324 1.0 12.0 0.00 0.00 0.00 70 1007.9
20260904150643 78 340 2.0 7.0 0.00 0.00 0.00 64 1008.7
20260904150204 77 336 0.0 12.0 0.00 0.00 0.00 71 1007.9
20260904150138 78 248 5.0 8.0 0.00 0.00 0.00 64 1008.7
20260904145636 77 51 2.0 7.0 0.00 0.00 0.00 65 1008.7
20260904145203 76 333 1.0 10.0 0.00 0.00 0.00 72 1007.9
20260904145131 77 48 4.0 8.0 0.00 0.00 0.00 66 1008.7
20260904144704 77 335 0.0 1.0 0.00 0.00 0.00 73 1008.0
20260904144627 77 192 4.0 4.0 0.00 0.00 0.00 66 1008.9
20260904144204 76 341 1.0 7.0 0.00 0.00 0.00 73 1008.1
20260904144123 77 47 2.0 6.0 0.00 0.00 0.00 66 1009.0
20260904143704 76 302 0.0 13.0 0.00 0.00 0.00 73 1008.1
20260904143619 77 266 6.0 8.0 0.00 0.00 0.00 66 1008.9
20260904143203 76 305 3.0 12.0 0.00 0.00 0.00 74 1008.1
20260904143115 77 279 3.0 9.0 0.00 0.00 0.00 67 1009.0
20260904142611 77 237 3.0 4.0 0.00 0.00 0.00 68 1009.0
20260904142203 75 294 1.0 12.0 0.00 0.00 0.00 78 1008.2
20260904142111 76 316 2.0 7.0 0.00 0.00 0.00 69 1009.2
20260904141703 74 303 0.0 9.0 0.00 0.00 0.00 80 1008.2
20260904141606 76 284 4.0 4.0 0.00 0.00 0.00 69 1009.0
20260904141203 74 297 0.0 3.0 0.00 0.00 0.00 83 1008.1
20260904141102 76 240 3.0 6.0 0.00 0.00 0.00 71 1008.9
20260904140703 73 297 1.0 7.0 0.00 0.00 0.00 86 1008.2
20260904140557 76 134 0.0 2.0 0.00 0.00 0.00 73 1009.2
20260904140204 73 179 2.0 5.0 0.00 0.00 0.00 88 1008.1
20260904140051 75 194 2.0 3.0 0.00 0.00 0.00 74 1009.0
20260904135704 72 275 0.0 3.0 0.00 0.00 0.00 89 1008.3
20260904135550 75 181 1.0 3.0 0.00 0.00 0.00 74 1009.0
20260904135203 72 345 1.0 5.0 0.00 0.00 0.00 90 1008.3
20260904135047 75 359 2.0 4.0 0.00 0.00 0.00 74 1009.3
20260904134703 71 312 0.0 3.0 0.00 0.00 0.00 91 1008.3
20260904134542 74 112 1.0 3.0 0.00 0.00 0.00 75 1009.2
20260904134203 71 323 4.0 8.0 0.00 0.00 0.00 92 1008.3
20260904134036 74 205 5.0 7.0 0.00 0.00 0.00 75 1009.1
20260904133704 70 302 2.0 9.0 0.00 0.00 0.00 94 1008.4
20260904133531 74 136 0.0 2.0 0.00 0.00 0.00 76 1009.1
20260904133203 69 303 1.0 5.0 0.00 0.00 0.00 94 1008.3
20260904133027 74 105 1.0 3.0 0.00 0.00 0.00 77 1009.2
20260904132527 72 114 0.0 3.0 0.00 0.00 0.00 79 1009.3
20260904132204 68 285 0.0 0.0 0.00 0.00 0.00 95 1008.4
20260904132027 72 159 1.0 2.0 0.00 0.00 0.00 80 1009.2
20260904131703 68 315 0.0 0.0 0.00 0.00 0.00 95 1008.5
20260904131527 72 58 2.0 3.0 0.00 0.00 0.00 80 1009.4
20260904131204 68 317 0.0 1.0 0.00 0.00 0.00 95 1008.5
20260904131023 71 333 3.0 3.0 0.00 0.00 0.00 81 1009.3
20260904130703 67 305 0.0 5.0 0.00 0.00 0.00 95 1008.4
20260904130522 71 63 1.0 4.0 0.00 0.00 0.00 82 1009.4
20260904130204 67 305 2.0 5.0 0.00 0.00 0.00 95 1008.4
20260904130017 70 113 1.0 1.0 0.00 0.00 0.00 85 1009.0
20260904125703 66 340 0.0 0.0 0.00 0.00 0.00 95 1008.4
20260904125514 69 78 0.0 1.0 0.00 0.00 0.00 88 1009.3
20260904125203 66 334 0.0 1.0 0.00 0.00 0.00 95 1008.4
20260904125008 69 194 1.0 2.0 0.00 0.00 0.00 89 1009.2
20260904124704 66 279 1.0 3.0 0.00 0.00 0.00 96 1008.4
20260904124504 68 151 0.0 1.0 0.00 0.00 0.00 93 1009.1
20260904124000 67 139 0.0 1.0 0.00 0.00 0.00 95 1009.1
20260904123704 65 301 0.0 3.0 0.00 0.00 0.00 95 1008.4
20260904123454 66 263 1.0 2.0 0.00 0.00 0.00 96 1009.2
20260904123203 65 286 2.0 3.0 0.00 0.00 0.00 95 1008.3
20260904122950 66 74 1.0 2.0 0.00 0.00 0.00 97 1009.1
20260904122703 65 315 2.0 3.0 0.00 0.00 0.00 95 1008.3
20260904122449 66 40 1.0 2.0 0.00 0.00 0.00 97 1009.2
20260904122204 65 312 0.0 0.0 0.00 0.00 0.00 95 1008.4
20260904121943 65 211 1.0 1.0 0.00 0.00 0.00 97 1009.1
20260904121704 65 310 0.0 0.0 0.00 0.00 0.00 95 1008.3
20260904121439 65 87 0.0 2.0 0.00 0.00 0.00 97 1009.1
20260904121204 65 323 0.0 0.0 0.00 0.00 0.00 95 1008.4
20260904120936 65 309 1.0 2.0 0.00 0.00 0.00 97 1009.2
20260904120704 65 331 0.0 0.0 0.00 0.00 0.00 95 1008.4
20260904120431 65 136 0.0 1.0 0.00 0.00 0.00 97 1009.2
20260904120203 65 298 0.0 0.0 0.00 0.00 0.00 95 1008.5
20260904115927 65 128 0.0 1.0 0.00 0.00 0.00 97 1009.0
20260904115704 65 307 0.0 0.0 0.00 0.00 0.00 95 1008.5
20260904115422 64 149 0.0 1.0 0.00 0.00 0.00 97 1009.2
20260904115204 64 351 0.0 0.0 0.00 0.00 0.00 95 1008.5
20260904114922 64 83 0.0 0.0 0.00 0.00 0.00 97 1009.3
20260904114704 64 351 0.0 0.0 0.00 0.00 0.00 95 1008.5
20260904114422 64 105 0.0 1.0 0.00 0.00 0.00 97 1009.4
20260904113918 64 275 1.0 1.0 0.00 0.00 0.00 98 1009.1
20260904113417 64 26 1.0 1.0 0.00 0.00 0.00 98 1009.5
20260904113203 65 290 0.0 0.0 0.00 0.00 0.00 95 1008.5
20260904112916 64 318 1.0 2.0 0.00 0.00 0.00 97 1009.3
20260904112704 65 254 0.0 0.0 0.00 0.00 0.00 95 1008.4
20260904112412 64 178 0.0 1.0 0.00 0.00 0.00 98 1009.2
20260904111908 64 144 0.0 0.0 0.00 0.00 0.00 98 1009.1
20260904111704 65 292 0.0 0.0 0.00 0.00 0.00 95 1008.3
20260904111403 64 101 0.0 0.0 0.00 0.00 0.00 98 1009.1
20260904111204 65 327 0.0 0.0 0.00 0.00 0.00 95 1008.2
20260904110859 64 143 0.0 0.0 0.00 0.00 0.00 98 1009.1
20260904110704 65 327 0.0 0.0 0.00 0.00 0.00 95 1008.2
20260904110357 64 61 0.0 0.0 0.00 0.00 0.00 98 1008.9
20260904110203 65 344 0.0 0.0 0.00 0.00 0.00 95 1008.2
20260904105853 64 298 2.0 3.0 0.00 0.00 0.00 97 1009.0
20260904105703 65 299 0.0 0.0 0.00 0.00 0.00 95 1008.1
20260904105348 64 202 1.0 2.0 0.00 0.00 0.00 98 1008.9
20260904104843 64 343 2.0 2.0 0.00 0.00 0.00 98 1008.8
20260904104704 65 323 0.0 0.0 0.00 0.00 0.00 95 1008.0
20260904104338 64 137 0.0 2.0 0.00 0.00 0.00 98 1008.9
20260904103835 64 259 1.0 1.0 0.00 0.00 0.00 98 1008.7
20260904103703 65 295 0.0 0.0 0.00 0.00 0.00 95 1008.0
20260904103334 64 144 0.0 1.0 0.00 0.00 0.00 98 1008.7
20260904103204 65 295 0.0 0.0 0.00 0.00 0.00 95 1008.0
20260904102831 64 341 0.0 0.0 0.00 0.00 0.00 97 1008.9
20260904102704 65 295 0.0 0.0 0.00 0.00 0.00 95 1008.0
20260904102326 65 265 1.0 2.0 0.00 0.00 0.00 97 1008.9
20260904102203 65 295 0.0 0.0 0.00 0.00 0.00 95 1008.0
20260904101822 65 94 0.0 1.0 0.00 0.00 0.00 98 1008.8
20260904101704 65 335 0.0 0.0 0.00 0.00 0.00 95 1008.0
20260904101318 65 124 0.0 1.0 0.00 0.00 0.00 97 1008.6
20260904101204 65 335 0.0 0.0 0.00 0.00 0.00 95 1007.9
20260904100813 64 66 0.0 1.0 0.00 0.00 0.00 97 1008.8
20260904100704 65 335 0.0 0.0 0.00 0.00 0.00 95 1007.9
20260904100309 65 117 0.0 1.0 0.00 0.00 0.00 97 1008.7
20260904100203 65 334 0.0 0.0 0.00 0.00 0.00 95 1007.9
20260904095804 65 67 0.0 0.0 0.00 0.00 0.00 97 1008.8
20260904095259 65 135 0.0 1.0 0.00 0.00 0.00 97 1008.7
20260904095203 65 30 0.0 0.0 0.00 0.01 0.00 95 1007.9
20260904094754 65 107 0.0 0.0 0.00 0.00 0.00 97 1008.6
20260904094703 65 30 0.0 0.0 0.00 0.02 0.00 95 1007.8
20260904094253 65 18 0.0 2.0 0.00 0.00 0.00 97 1008.5
20260904094203 65 30 0.0 0.0 0.00 0.02 0.00 95 1007.8
20260904093751 65 116 0.0 0.0 0.00 0.00 0.00 97 1008.6
20260904093250 65 116 0.0 2.0 0.00 0.00 0.00 97 1008.7
20260904093204 66 298 0.0 0.0 0.00 0.02 0.00 95 1007.9
20260904092746 65 127 0.0 0.0 0.00 0.00 0.00 97 1008.8
20260904092243 65 98 0.0 2.0 0.00 0.00 0.00 97 1008.6
20260904092204 66 328 0.0 0.0 0.00 0.02 0.00 94 1007.7
20260904091738 65 123 0.0 1.0 0.00 0.00 0.00 97 1008.7
20260904091703 66 343 0.0 0.0 0.00 0.02 0.00 94 1007.8
20260904091233 65 194 1.0 2.0 0.00 0.00 0.00 97 1008.5
20260904090728 65 342 0.0 1.0 0.00 0.00 0.00 97 1008.5
20260904090225 65 334 1.0 1.0 0.00 0.00 0.00 97 1008.6
20260904090204 66 339 0.0 0.0 0.00 0.02 0.00 94 1007.7
20260904085724 66 106 0.0 1.0 0.00 0.00 0.00 97 1008.4
20260904085704 66 343 0.0 0.0 0.00 0.02 0.00 94 1007.7
20260904085219 66 61 1.0 2.0 0.00 0.00 0.00 97 1008.5
20260904085204 66 348 0.0 0.0 0.00 0.02 0.00 94 1007.7
20260904084714 66 29 1.0 2.0 0.00 0.00 0.00 97 1008.5
20260904084704 66 315 0.0 0.0 0.00 0.02 0.00 94 1007.8
20260904084211 66 143 0.0 0.0 0.00 0.00 0.00 97 1008.6
20260904084204 67 293 0.0 0.0 0.00 0.02 0.00 94 1007.9
20260904083707 66 129 0.0 0.0 0.00 0.00 0.00 97 1008.9
20260904083704 67 293 0.0 0.0 0.00 0.02 0.00 94 1008.0
20260904083203 66 176 1.0 2.0 0.00 0.00 0.00 97 1008.8
20260904082704 67 248 0.0 0.0 0.00 0.02 0.00 94 1007.9
20260904082702 66 146 0.0 0.0 0.00 0.00 0.00 97 1008.6
20260904082203 67 248 0.0 0.0 0.00 0.02 0.00 94 1007.8
20260904082158 66 138 0.0 1.0 0.00 0.00 0.00 97 1008.6
20260904081704 67 249 0.0 0.0 0.00 0.02 0.00 94 1007.9
20260904081653 66 159 0.0 1.0 0.00 0.00 0.00 97 1008.7
20260904081204 67 247 0.0 0.0 0.00 0.02 0.00 94 1007.9
20260904081148 66 141 0.0 0.0 0.00 0.00 0.00 97 1008.8
20260904080644 66 144 0.0 0.0 0.00 0.00 0.00 97 1008.8
20260904080202 67 243 0.0 0.0 0.00 0.02 0.00 94 1008.0
20260904080140 67 130 0.0 0.0 0.00 0.00 0.00 97 1008.8
20260904075702 67 240 0.0 0.0 0.00 0.04 0.00 94 1008.0
20260904075636 67 79 0.0 0.0 0.00 0.00 0.00 97 1008.7
20260904075202 67 227 0.0 0.0 0.00 0.07 0.00 94 1008.0
20260904075131 67 159 0.0 0.0 0.00 0.00 0.00 97 1008.9
20260904074702 67 172 0.0 0.0 0.00 0.07 0.00 94 1008.0
20260904074630 67 152 0.0 0.0 0.00 0.00 0.00 97 1008.7
20260904074125 67 134 0.0 0.0 0.00 0.00 0.00 97 1008.8
20260904073702 67 159 0.0 0.0 0.00 0.07 0.00 94 1008.0
20260904073620 67 130 0.0 0.0 0.00 0.00 0.00 97 1008.7
20260904073203 67 159 0.0 0.0 0.00 0.07 0.00 94 1008.0
20260904073116 67 129 0.0 0.0 0.00 0.00 0.00 97 1009.0
20260904072702 67 159 0.0 0.0 0.00 0.07 0.00 94 1008.0
20260904072612 67 134 0.0 0.0 0.00 0.00 0.00 97 1008.8
20260904072202 67 159 0.0 0.0 0.00 0.07 0.00 94 1008.1
20260904072106 67 132 0.0 0.0 0.00 0.00 0.00 97 1009.0
20260904071702 67 159 0.0 0.0 0.00 0.07 0.00 94 1008.1
20260904071602 67 136 0.0 0.0 0.00 0.00 0.00 97 1009.0
20260904071202 67 159 0.0 0.0 0.00 0.07 0.00 94 1008.1
20260904071057 67 139 0.0 0.0 0.00 0.00 0.00 97 1009.2
20260904070556 67 169 0.0 0.0 0.00 0.00 0.00 97 1008.9
20260904070202 67 137 0.0 0.0 0.00 0.07 0.00 94 1008.1
20260904070051 67 144 0.0 0.0 0.00 0.00 0.00 97 1008.9
20260904065702 67 137 0.0 0.0 0.00 0.07 0.00 94 1008.1
20260904065546 67 133 0.0 0.0 0.00 0.00 0.00 97 1008.8
20260904065202 67 137 0.0 0.0 0.00 0.07 0.00 94 1008.2
20260904065042 66 131 0.0 0.0 0.00 0.00 0.00 97 1009.0
20260904064702 67 137 0.0 0.0 0.00 0.07 0.00 94 1008.3
20260904064533 66 124 0.0 1.0 0.00 0.00 0.00 97 1009.1
20260904064032 67 127 0.0 0.0 0.00 0.00 0.00 97 1009.2
20260904063703 67 137 0.0 0.0 0.00 0.07 0.00 94 1008.4
20260904063529 67 121 0.0 0.0 0.00 0.00 0.00 97 1009.2
20260904063202 67 137 0.0 0.0 0.00 0.07 0.00 94 1008.3
20260904063029 67 103 0.0 0.0 0.00 0.00 0.00 97 1009.2
20260904062702 67 137 0.0 0.0 0.00 0.07 0.00 94 1008.3
20260904062526 67 108 0.0 0.0 0.00 0.00 0.00 96 1009.1
20260904062021 67 125 0.0 0.0 0.00 0.00 0.00 96 1009.3
20260904061702 67 137 0.0 0.0 0.00 0.07 0.00 93 1008.5
20260904061517 67 123 0.0 0.0 0.00 0.00 0.00 96 1009.3
20260904061202 67 137 0.0 0.0 0.00 0.07 0.00 93 1008.6
20260904061013 67 126 0.0 0.0 0.00 0.00 0.00 96 1009.3
20260904060702 67 137 0.0 0.0 0.00 0.07 0.00 94 1008.7
20260904060509 67 132 0.0 0.0 0.00 0.00 0.00 96 1009.4
20260904060004 67 123 0.0 0.0 0.00 0.00 0.00 96 1009.5
20260904055702 67 137 0.0 0.0 0.00 0.07 0.00 94 1008.8
20260904055500 67 102 0.0 0.0 0.00 0.00 0.00 96 1009.8
20260904054955 67 106 0.0 0.0 0.00 0.00 0.00 96 1009.8
20260904054450 67 85 0.0 1.0 0.00 0.00 0.00 96 1009.7
20260904054202 67 137 0.0 0.0 0.00 0.07 0.00 93 1009.0
20260904053946 67 100 0.0 0.0 0.00 0.00 0.00 96 1009.8
20260904053702 67 138 0.0 0.0 0.00 0.07 0.00 93 1009.0
20260904053445 67 120 0.0 0.0 0.00 0.00 0.00 96 1009.9
20260904053202 67 134 0.0 0.0 0.00 0.07 0.00 93 1009.1
20260904052941 67 144 0.0 2.0 0.00 0.00 0.00 96 1009.8
20260904052437 67 134 0.0 0.0 0.00 0.00 0.00 96 1009.9
20260904051933 67 135 0.0 0.0 0.00 0.00 0.00 96 1010.2
20260904051430 67 142 0.0 0.0 0.00 0.00 0.00 95 1010.2
20260904051203 68 180 0.0 0.0 0.00 0.07 0.00 93 1009.3
20260904050924 67 195 1.0 2.0 0.00 0.00 0.00 95 1010.0
20260904050702 68 180 0.0 0.0 0.00 0.07 0.00 93 1009.3
20260904050420 67 137 0.0 0.0 0.00 0.00 0.00 95 1010.0
20260904045920 67 144 0.0 0.0 0.00 0.00 0.00 95 1010.0
20260904045702 68 180 0.0 0.0 0.00 0.07 0.00 93 1009.2
20260904045415 67 168 0.0 0.0 0.00 0.00 0.00 95 1009.9
20260904045202 68 171 0.0 0.0 0.00 0.07 0.00 93 1009.2
20260904044914 67 143 0.0 0.0 0.00 0.00 0.00 95 1010.0
20260904044702 68 171 0.0 0.0 0.00 0.07 0.00 93 1009.2
20260904044411 67 141 0.0 0.0 0.00 0.00 0.00 95 1009.9
20260904043907 67 152 1.0 1.0 0.00 0.00 0.00 95 1009.8
20260904043703 68 184 0.0 0.0 0.00 0.07 0.00 93 1009.2
20260904043403 67 209 0.0 2.0 0.00 0.00 0.00 95 1009.9
20260904043202 68 154 0.0 0.0 0.00 0.07 0.00 93 1009.2
20260904042858 68 112 0.0 1.0 0.00 0.00 0.00 95 1010.1
20260904042703 68 159 0.0 0.0 0.00 0.07 0.00 93 1009.3
20260904042354 68 138 0.0 1.0 0.00 0.00 0.00 95 1010.1
20260904041849 67 167 0.0 1.0 0.00 0.00 0.00 95 1010.3
20260904041703 68 143 0.0 0.0 0.00 0.07 0.00 93 1009.4
20260904041345 67 137 0.0 1.0 0.00 0.00 0.00 95 1010.0
20260904041203 68 136 0.0 0.0 0.00 0.07 0.00 92 1009.5
20260904040841 67 126 0.0 0.0 0.00 0.00 0.00 95 1010.2
20260904040702 68 54 0.0 0.0 0.00 0.07 0.00 92 1009.5
20260904040336 67 126 0.0 0.0 0.00 0.00 0.00 95 1010.1
20260904040202 68 54 0.0 0.0 0.00 0.07 0.00 92 1009.5
20260904035833 67 126 0.0 0.0 0.00 0.09 0.09 95 1010.2
20260904035328 67 166 0.0 0.0 0.00 0.09 0.09 95 1010.3
20260904035202 68 54 0.0 0.0 0.00 0.07 0.07 92 1009.6
20260904034827 67 166 0.0 0.0 0.00 0.09 0.09 95 1010.3
20260904034322 67 166 0.0 0.0 0.00 0.09 0.09 95 1010.7
20260904034202 68 54 0.0 0.0 0.00 0.07 0.07 92 1009.7
20260904033818 67 166 0.0 0.0 0.00 0.09 0.09 95 1010.4
20260904033703 68 54 0.0 0.0 0.00 0.07 0.07 92 1009.7
20260904033314 67 166 0.0 0.0 0.00 0.09 0.09 95 1010.5
20260904033202 68 54 0.0 0.0 0.00 0.07 0.07 92 1009.7
20260904032811 67 166 0.0 0.0 0.00 0.09 0.09 95 1010.6
20260904032702 68 53 0.0 0.0 0.00 0.07 0.07 92 1009.7
20260904032310 67 168 0.0 0.0 0.00 0.09 0.09 94 1010.3
20260904032202 68 51 0.0 0.0 0.00 0.07 0.07 92 1009.6
20260904031804 67 168 0.0 0.0 0.00 0.09 0.09 94 1010.5
20260904031702 68 51 0.0 0.0 0.00 0.07 0.07 92 1009.7
20260904031300 67 168 0.0 0.0 0.00 0.09 0.09 94 1010.6
20260904031202 68 51 0.0 0.0 0.00 0.07 0.07 92 1009.8
20260904030756 67 168 0.0 0.0 0.00 0.09 0.09 94 1010.6
20260904030703 68 51 0.0 0.0 0.00 0.07 0.07 92 1009.9
20260904030251 67 195 0.0 2.0 0.00 0.09 0.09 94 1010.7
20260904030202 68 51 0.0 0.0 0.00 0.07 0.07 91 1009.9
20260904025747 67 100 0.0 0.0 0.00 0.09 0.09 94 1010.8
20260904025242 67 200 0.0 0.0 0.00 0.09 0.09 94 1010.5
20260904025202 68 130 0.0 0.0 0.00 0.07 0.07 91 1009.8
20260904024737 68 112 2.0 2.0 0.00 0.09 0.09 94 1010.7
20260904024233 68 161 0.0 2.0 0.00 0.09 0.09 94 1010.8
20260904023729 68 123 0.0 1.0 0.00 0.09 0.09 93 1010.3
20260904023702 68 83 0.0 0.0 0.00 0.07 0.07 91 1009.7
20260904023225 68 142 0.0 1.0 0.00 0.09 0.09 93 1010.7
20260904022724 68 161 0.0 1.0 0.00 0.09 0.09 93 1010.7
20260904022702 69 117 0.0 0.0 0.00 0.07 0.07 91 1009.9
20260904022222 68 107 0.0 1.0 0.00 0.09 0.09 93 1010.8
20260904021717 68 82 0.0 0.0 0.00 0.09 0.09 93 1010.7
20260904021703 69 118 0.0 0.0 0.00 0.07 0.07 91 1009.9
20260904021212 68 124 0.0 0.0 0.00 0.09 0.09 93 1010.7
20260904021202 69 120 0.0 0.0 0.00 0.07 0.07 91 1009.9
20260904020708 68 143 0.0 0.0 0.00 0.09 0.09 93 1010.8
20260904020702 69 125 0.0 0.0 0.00 0.07 0.07 91 1010.0
20260904020207 68 109 0.0 2.0 0.00 0.09 0.09 93 1011.0
20260904020202 69 71 0.0 0.0 0.00 0.07 0.07 91 1010.2
20260904015706 68 109 0.0 0.0 0.00 0.09 0.09 93 1010.9
20260904015201 68 85 0.0 0.0 0.00 0.09 0.09 93 1011.1
20260904014702 69 115 0.0 0.0 0.00 0.07 0.07 90 1010.1
20260904014659 68 128 0.0 0.0 0.00 0.09 0.09 93 1011.0
20260904014154 68 115 0.0 0.0 0.00 0.09 0.09 93 1010.9
20260904013651 68 128 0.0 0.0 0.00 0.09 0.09 93 1010.9
20260904013202 69 117 0.0 0.0 0.00 0.07 0.07 89 1010.1
20260904013147 68 116 0.0 0.0 0.00 0.09 0.09 93 1010.8
20260904012702 69 117 0.0 0.0 0.00 0.07 0.07 89 1010.1
20260904012642 68 124 0.0 0.0 0.00 0.09 0.09 93 1010.7
20260904012203 69 117 0.0 0.0 0.00 0.07 0.07 89 1010.0
20260904012141 68 92 0.0 0.0 0.00 0.09 0.09 93 1010.8
20260904011702 69 117 0.0 0.0 0.00 0.07 0.07 89 1010.1
20260904011640 68 155 0.0 0.0 0.00 0.09 0.09 93 1011.0
20260904011136 68 154 0.0 0.0 0.00 0.09 0.09 93 1010.9
20260904010702 69 117 0.0 0.0 0.00 0.07 0.07 88 1010.1
20260904010632 68 132 0.0 0.0 0.00 0.09 0.09 93 1011.0
20260904010203 70 117 0.0 0.0 0.00 0.07 0.07 88 1010.1
20260904010128 68 140 0.0 0.0 0.00 0.09 0.09 93 1011.1
20260904005702 70 115 0.0 0.0 0.00 0.07 0.07 88 1010.0
20260904005623 68 138 0.0 0.0 0.00 0.09 0.09 93 1011.0
20260904005119 68 110 0.0 0.0 0.00 0.09 0.09 93 1010.8
20260904004703 70 115 0.0 0.0 0.00 0.07 0.07 88 1009.7
20260904004614 68 109 0.0 0.0 0.00 0.09 0.09 92 1010.5
20260904004114 68 120 0.0 0.0 0.00 0.09 0.09 92 1010.7
20260904003702 70 115 0.0 0.0 0.00 0.07 0.07 87 1009.8
20260904003610 69 143 0.0 0.0 0.00 0.09 0.09 92 1010.8
20260904003203 70 115 0.0 0.0 0.00 0.07 0.07 87 1009.8
20260904003106 69 119 0.0 0.0 0.00 0.09 0.09 92 1010.7
20260904002702 70 115 0.0 0.0 0.00 0.07 0.07 87 1009.8
20260904002601 69 123 0.0 0.0 0.00 0.09 0.09 92 1010.6
20260904002203 70 115 0.0 0.0 0.00 0.07 0.07 87 1009.7
20260904002056 69 116 0.0 0.0 0.00 0.09 0.09 91 1010.4
20260904001552 69 129 0.0 0.0 0.00 0.09 0.09 91 1010.5
20260904001202 71 115 0.0 0.0 0.00 0.07 0.07 86 1009.6
20260904001050 69 121 0.0 0.0 0.00 0.09 0.09 91 1010.3
20260904000702 71 115 0.0 0.0 0.00 0.07 0.07 86 1009.4
20260904000545 69 117 0.0 0.0 0.00 0.09 0.09 91 1010.2
20260904000203 71 115 0.0 0.0 0.00 0.07 0.07 85 1009.3
20260904000041 69 84 0.0 0.0 0.00 0.09 0.09 91 1010.1
20260903235703 71 115 0.0 0.0 0.00 0.07 0.07 85 1009.3
20260903235536 69 117 0.0 0.0 0.00 0.09 0.09 91 1010.3
20260903235202 71 115 0.0 0.0 0.00 0.07 0.07 84 1009.4
20260903235032 69 109 0.0 0.0 0.00 0.09 0.09 90 1010.3
20260903234703 72 115 0.0 0.0 0.00 0.07 0.07 84 1009.5
20260903234527 69 111 0.0 0.0 0.00 0.09 0.09 90 1010.2
20260903234202 72 115 0.0 0.0 0.00 0.07 0.07 84 1009.4
20260903234022 69 144 0.0 0.0 0.00 0.09 0.09 90 1010.2
20260903233703 72 96 0.0 0.0 0.00 0.07 0.07 83 1009.2
20260903233518 69 109 0.0 0.0 0.00 0.09 0.09 89 1010.1
20260903233202 72 96 0.0 0.0 0.00 0.07 0.07 83 1009.2
20260903233014 69 128 0.0 0.0 0.00 0.09 0.09 89 1009.9
20260903232702 73 96 0.0 0.0 0.00 0.07 0.07 82 1009.2
20260903232509 70 141 0.0 0.0 0.00 0.09 0.09 88 1010.1
20260903232203 73 96 0.0 0.0 0.00 0.07 0.07 82 1009.3
20260903232009 70 146 0.0 0.0 0.00 0.09 0.09 87 1009.9
20260903231702 73 96 0.0 0.0 0.00 0.07 0.07 82 1009.2
20260903231503 71 147 0.0 0.0 0.00 0.09 0.09 86 1010.1
20260903231202 73 96 0.0 0.0 0.00 0.07 0.07 81 1009.3
20260903230957 71 203 0.0 0.0 0.00 0.09 0.09 85 1010.2
20260903230702 74 96 0.0 0.0 0.00 0.07 0.07 81 1009.4
20260903230454 72 125 0.0 0.0 0.00 0.09 0.09 84 1010.2
20260903230203 74 96 0.0 0.0 0.00 0.07 0.07 81 1009.4
20260903225950 72 120 0.0 0.0 0.00 0.09 0.09 83 1010.3
20260903225702 74 96 0.0 0.0 0.00 0.07 0.07 80 1009.5
20260903225445 73 143 0.0 0.0 0.00 0.09 0.09 82 1010.4
20260903225202 74 96 0.0 0.0 0.00 0.07 0.07 80 1009.4
20260903224942 73 142 0.0 0.0 0.00 0.09 0.09 82 1010.4
20260903224703 75 96 0.0 0.0 0.00 0.07 0.07 80 1009.3
20260903224437 73 140 0.0 0.0 0.00 0.09 0.09 81 1010.0
20260903224203 75 96 0.0 0.0 0.00 0.07 0.07 80 1009.3
20260903223933 73 135 0.0 1.0 0.00 0.09 0.09 80 1010.2
20260903223703 75 91 0.0 0.0 0.00 0.07 0.07 80 1009.2
20260903223432 74 120 0.0 2.0 0.00 0.09 0.09 80 1010.1
20260903223203 75 136 0.0 0.0 0.00 0.07 0.07 79 1009.4
20260903222931 74 97 0.0 1.0 0.00 0.09 0.09 79 1010.3
20260903222702 75 109 0.0 1.0 0.00 0.07 0.07 79 1009.6
20260903222427 75 143 0.0 1.0 0.00 0.09 0.09 79 1010.6
20260903222203 76 91 0.0 0.0 0.00 0.07 0.07 79 1009.7
20260903221926 75 86 1.0 2.0 0.00 0.09 0.09 77 1010.7
20260903221703 76 94 0.0 0.0 0.00 0.07 0.07 79 1009.8
20260903221425 75 114 0.0 1.0 0.00 0.09 0.09 77 1010.6
20260903221203 76 67 0.0 0.0 0.00 0.07 0.07 79 1009.7
20260903220923 76 184 1.0 2.0 0.00 0.09 0.09 76 1010.3
20260903220703 76 171 0.0 0.0 0.00 0.07 0.07 79 1009.7
20260903220418 76 194 1.0 2.0 0.00 0.09 0.09 75 1010.5
20260903220202 76 129 0.0 0.0 0.00 0.07 0.07 79 1009.7
20260903215916 77 106 0.0 2.0 0.00 0.09 0.09 74 1010.4
20260903215702 76 111 0.0 0.0 0.00 0.07 0.07 79 1009.6
20260903215413 77 104 2.0 3.0 0.00 0.09 0.09 74 1010.5
20260903215202 76 315 0.0 0.0 0.00 0.07 0.07 79 1009.8
20260903214911 76 155 0.0 1.0 0.00 0.09 0.09 76 1010.5
20260903214703 76 315 0.0 0.0 0.00 0.07 0.07 79 1009.8
20260903214407 76 152 0.0 1.0 0.00 0.09 0.09 76 1010.6
20260903214202 76 315 0.0 0.0 0.00 0.07 0.07 78 1009.8
20260903213906 76 161 1.0 1.0 0.00 0.09 0.09 76 1010.7
20260903213703 76 315 0.0 0.0 0.00 0.07 0.07 78 1009.8
20260903213401 75 166 0.0 1.0 0.00 0.09 0.09 76 1010.4
20260903213202 76 315 0.0 0.0 0.00 0.07 0.07 77 1009.7
20260903212857 75 314 2.0 2.0 0.00 0.09 0.09 76 1010.7
20260903212702 76 317 0.0 0.0 0.00 0.07 0.07 77 1009.7
20260903212353 75 310 1.0 2.0 0.00 0.09 0.09 75 1010.4
20260903212202 77 319 0.0 0.0 0.00 0.07 0.07 76 1009.7
20260903211852 75 177 1.0 1.0 0.00 0.09 0.09 76 1010.6
20260903211702 77 319 0.0 0.0 0.00 0.07 0.07 76 1009.8
20260903211348 75 308 1.0 1.0 0.00 0.09 0.09 75 1010.5
20260903211202 77 194 0.0 0.0 0.00 0.07 0.07 75 1009.7
20260903210845 77 175 2.0 2.0 0.00 0.09 0.09 73 1010.6
20260903210702 77 190 0.0 0.0 0.00 0.07 0.07 76 1009.7
20260903210344 77 178 1.0 2.0 0.00 0.09 0.09 74 1010.4
20260903210202 77 190 0.0 0.0 0.00 0.07 0.07 76 1009.7
20260903205839 77 177 1.0 1.0 0.00 0.09 0.09 72 1010.5
20260903205702 77 208 0.0 0.0 0.00 0.07 0.07 77 1009.7
20260903205338 77 167 2.0 2.0 0.00 0.09 0.09 72 1010.5
20260903205203 77 200 0.0 0.0 0.00 0.07 0.07 77 1009.7
20260903204834 77 173 1.0 2.0 0.00 0.09 0.09 72 1010.7
20260903204702 76 205 0.0 0.0 0.00 0.07 0.07 77 1009.8
20260903204330 77 167 1.0 2.0 0.00 0.09 0.09 71 1010.7